Location: ??????
(41.3747°N, 22.5491°E)
Time: 04:36:54
(UTC+00:00)

CZ-4 R/B - Pass Details

Date: 01 December 2020
Orbit: 532 x 597 km, 97.7° (Epoch: 20 January)

Event Time Altitude Azimuth Distance (km) Brightness Sun altitude
Rises 15:58:56 0° 125° (SE) 2,718 4.5 -10.7°
Enters shadow 15:59:10 - 124° (SE) 2,636 4.4 -10.8°
Exits shadow 16:05:10 15° 48° (NE) 1,559 3.1 -11.8°
Drops below altitude 10° 16:06:43 10° 26° (NNE) 1,876 3.6 -12.1°
Sets 16:09:32 0° 6° (N) 2,793 4.7 -12.6°
